Location: Newark
(5.8900°S, 42.6378°W)
Time: 08:45:05
(UTC+00:00)

Vanguard 1 Rocket - Pass Details

Date: 20 October 2019
Orbit: 651 x 4226 km, 34.3° (Epoch: 17 November)

Event Time Altitude Azimuth Distance (km) Brightness Sun altitude
Rises 00:22:45 0° 283° (WNW) 7,320 12.4 -53.3°
Reaches altitude 10° 00:29:22 10° 273° (W) 5,671 11.7 -54.7°
Enters shadow 00:41:24 29° 222° (SW) 3,009 10.1 -57.4°
Maximum altitude 00:41:42 29° 219° (SW) 2,974 - -57.4°
Drops below altitude 10° 00:49:02 10° 161° (SSE) 3,290 - -59.0°
Sets 00:51:44 0° 148° (SSE) 3,918 - -59.6°
